Theta_e
314 310 308 305 296 291 288 290 295 295 295 301 298 296 295 296 296 292 311 323 332 334 342 347 350 353 354 354 354 353 352 349 349 350 351 349 351 348 346 344 343 342 340 338 336 332 330 328 329
312 312 306 297 290 285 287 289 292 293 297 297 297 297 297 296 303 308 314 322 334 338 343 345 347 352 354 354 353 352 352 351 350 350 351 351 349 347 346 344 341 339 338 335 332 330 326 325 325
312 307 300 293 286 285 287 290 292 295 297 297 297 301 298 298 304 307 314 323 333 336 341 344 346 351 353 353 352 351 351 351 351 350 350 349 347 346 344 342 338 336 336 333 330 328 325 323 323
307 303 296 290 289 290 292 294 293 294 296 299 297 296 298 304 304 309 317 329 331 334 339 341 347 351 352 352 352 352 351 351 351 351 349 348 345 343 339 337 336 334 333 331 328 326 323 322 322
302 296 290 288 288 290 294 294 295 295 295 296 297 295 296 303 312 317 318 329 329 332 336 339 345 349 350 351 351 351 351 351 350 349 349 347 344 339 337 334 334 334 332 329 327 324 322 320 320
298 294 287 286 288 291 292 295 295 293 294 295 299 298 297 304 307 315 318 320 329 331 334 338 338 342 346 348 349 349 350 350 349 348 348 346 343 339 335 333 334 333 330 327 325 323 320 318 317
296 291 287 286 288 291 293 296 298 294 292 294 297 298 298 300 306 312 315 316 323 329 331 335 339 340 338 342 343 345 347 348 348 347 346 343 340 338 336 333 332 331 329 327 325 322 319 316 314
297 293 288 287 288 289 294 295 294 293 293 299 298 294 296 304 304 308 312 312 315 325 329 331 335 338 339 339 336 338 341 342 343 342 339 335 333 332 332 329 330 329 329 327 324 321 318 316 312
297 288 285 287 288 290 293 294 295 295 296 295 297 298 297 302 305 306 306 310 311 317 326 329 331 334 335 336 334 334 335 336 336 335 332 328 330 329 327 327 328 329 329 327 325 321 318 314 310
293 286 288 291 291 291 294 292 294 294 294 292 294 297 301 302 304 304 305 306 309 313 317 326 328 332 333 338 335 334 334 333 333 332 329 328 329 326 324 321 325 327 326 328 325 321 317 306 293
293 289 292 295 296 295 294 293 294 291 293 294 295 295 297 298 300 301 301 303 305 309 313 320 327 329 331 336 336 332 329 330 332 329 326 327 325 323 320 318 317 315 315 315 317 312 305 300 295
293 296 295 297 297 295 294 294 294 294 297 297 296 297 296 295 295 295 295 296 299 304 309 315 322 325 327 329 332 328 327 324 324 324 326 324 322 321 319 315 314 312 310 309 307 305 302 299 294
291 293 295 297 296 295 295 294 294 295 298 297 297 296 295 295 296 296 297 297 297 298 302 308 317 323 325 325 325 324 324 324 323 324 325 324 322 320 318 317 315 311 308 307 305 302 301 298 294
292 293 294 295 296 294 294 291 294 296 295 296 295 294 295 295 294 294 295 295 296 298 300 301 313 318 323 322 322 322 322 322 321 322 324 323 322 320 317 315 313 312 307 305 304 302 300 297 293
293 291 292 293 293 293 294 290 292 296 295 293 293 293 294 294 294 293 294 294 294 297 299 304 312 316 318 319 319 320 320 320 323 323 323 322 321 320 316 314 312 311 306 304 302 300 297 294 292
289 287 286 292 292 292 292 288 295 295 294 291 292 291 292 292 293 293 293 294 294 295 296 299 305 312 314 316 317 317 318 319 322 322 321 321 319 317 312 308 309 307 305 304 303 299 296 294 291
286 283 285 289 292 291 289 287 294 296 294 289 290 290 291 291 291 292 292 292 293 294 294 296 297 300 308 312 313 314 314 314 316 317 318 319 319 317 314 312 310 309 308 306 304 299 295 293 292
284 283 284 284 289 290 288 289 292 294 293 289 288 288 289 288 289 290 290 291 292 293 294 294 295 295 299 305 307 306 305 303 305 303 306 309 313 315 313 311 309 307 306 303 300 299 293 291 291
287 285 283 286 291 288 289 288 290 290 289 288 288 288 287 288 289 290 290 290 290 291 292 292 292 293 295 295 297 300 297 297 296 298 297 298 300 305 310 309 306 305 304 303 300 296 295 294 289
287 284 284 288 291 290 288 288 287 288 288 288 287 286 287 287 288 289 289 289 288 289 290 291 291 292 293 293 293 294 295 294 294 294 294 294 295 295 300 302 303 303 301 300 298 296 294 293 291
286 285 285 287 288 287 286 284 285 287 288 288 287 287 287 286 286 287 287 287 287 287 288 289 290 291 291 292 292 292 292 291 290 290 291 292 292 293 293 293 295 297 296 296 296 294 294 293 291
285 291 289 288 284 281 285 279 283 284 284 285 285 284 285 285 286 287 286 286 286 286 286 288 289 289 290 290 289 288 287 286 287 288 288 289 290 290 290 291 291 292 293 293 292 293 290 288 288
289 290 288 285 282 281 281 279 280 284 282 283 284 285 285 285 285 285 285 286 286 286 285 284 286 287 288 288 287 286 285 286 286 286 285 286 286 287 287 288 288 288 290 290 291 291 290 289 288
291 287 286 283 282 277 282 281 281 281 284 283 285 285 286 285 284 284 285 285 284 284 284 283 284 284 286 286 286 285 284 283 283 283 283 284 284 284 285 285 286 286 287 287 288 289 289 289 289
286 283 278 277 276 277 282 280 282 284 286 286 285 284 284 284 283 283 282 283 283 283 283 284 283 282 283 283 284 284 283 283 282 282 281 282 282 282 283 283 283 284 285 285 286 286 287 288 288
284 284 279 272 274 278 281 279 282 284 286 287 286 284 283 283 283 283 283 282 282 282 282 283 282 282 282 282 282 282 283 282 282 281 281 280 281 282 283 282 283 283 283 283 283 284 283 284 285
284 282 286 279 268 274 279 280 283 284 283 283 283 282 282 282 283 282 283 282 282 282 282 282 282 282 282 282 282 282 282 282 282 282 282 281 281 283 283 281 280 281 281 282 282 281 281 281 282
287 288 281 280 270 269 276 278 280 280 281 282 281 281 281 281 281 281 281 281 281 281 281 281 282 282 282 282 281 282 281 282 282 282 281 281 281 281 281 282 282 282 281 280 280 280 280 279 280
284 282 283 283 280 272 269 276 283 284 284 282 282 283 282 281 280 280 280 281 281 281 280 280 280 281 281 281 280 280 280 280 280 280 280 280 280 280 280 281 281 281 280 280 279 279 278 278 279
286 285 284 282 277 277 277 279 285 287 286 284 283 284 282 281 280 279 280 281 281 281 280 280 280 280 280 280 280 280 280 279 279 279 279 280 280 280 280 280 280 280 280 280 279 279 279 278 278
Wind_Speed
5 4 3 6 5 6 2 2 2 0 2 2 1 2 1 2 4 5 4 8 5 8 10 10 11 13 13 12 12 12 11 11 11 9 9 9 13 13 12 10 9 8 8 7 8 8 8 8 7
3 1 5 3 6 4 5 4 2 2 2 2 1 2 2 2 1 1 1 7 6 9 9 9 11 11 12 13 12 11 11 11 11 9 11 12 15 13 11 11 7 7 6 6 7 8 7 7 6
1 4 5 5 4 3 4 4 3 2 2 2 2 1 1 3 2 2 4 8 7 6 8 8 11 11 13 13 13 12 11 10 9 9 10 10 10 11 10 8 5 2 5 5 6 7 7 6 6
3 6 5 6 1 3 3 4 3 1 2 3 1 2 3 1 2 3 2 8 7 6 6 7 12 12 13 13 12 12 11 10 10 9 9 6 7 9 8 5 4 3 3 4 5 6 6 5 6
5 4 5 3 3 4 3 3 3 2 1 2 2 3 4 4 2 3 6 6 8 6 6 7 12 12 13 13 12 12 11 10 10 9 8 7 9 11 7 2 1 2 2 3 4 5 5 6 6
5 4 5 0 4 4 5 3 2 2 1 1 0 2 4 3 2 3 5 6 6 7 6 7 10 10 10 14 12 11 11 10 9 9 9 8 10 11 8 2 2 2 1 1 2 3 4 5 5
6 5 3 2 3 6 4 8 1 2 1 2 2 0 3 4 7 3 3 5 6 5 6 5 6 8 10 9 11 10 10 9 9 9 10 10 9 11 11 4 1 2 3 2 1 1 1 3 4
6 5 2 2 2 3 4 7 2 2 2 6 3 2 3 3 3 3 1 2 4 5 6 6 6 6 6 6 9 9 9 8 8 7 8 8 8 12 10 5 3 5 3 3 1 0 2 3 5
3 5 1 4 4 3 3 5 3 2 1 4 3 2 2 3 3 2 0 2 2 3 6 6 6 7 6 6 6 10 10 9 8 7 8 6 4 6 9 7 5 5 4 4 3 2 1 3 6
5 4 8 4 2 2 3 1 4 5 7 3 4 5 2 1 1 5 5 6 5 6 6 6 6 8 7 6 5 4 4 4 4 4 5 4 4 3 6 6 7 4 4 4 4 2 2 5 3
3 5 5 4 5 2 2 2 2 2 6 7 7 4 5 3 5 5 6 6 8 5 4 7 7 6 7 7 6 3 2 1 3 4 4 3 3 3 3 3 2 2 2 1 1 3 3 2 3
1 6 4 3 2 1 3 1 4 5 10 4 4 7 5 9 9 9 9 9 8 9 5 5 5 5 6 3 6 4 4 3 2 3 5 3 2 2 3 2 3 3 2 2 1 1 1 1 3
3 3 3 5 7 6 3 6 5 9 11 4 8 12 10 9 9 8 8 9 11 8 8 7 7 6 5 5 3 3 3 3 4 3 4 4 4 3 3 3 2 3 2 3 2 2 1 2 3
1 3 7 7 9 3 5 2 5 7 3 10 11 10 9 12 12 10 15 14 14 11 11 8 5 5 5 4 4 3 3 3 3 3 4 5 3 3 3 3 3 3 3 3 3 2 2 3 2
1 5 7 6 2 5 7 1 7 7 4 10 10 8 10 12 14 13 12 11 12 10 10 13 5 6 6 5 3 3 3 1 1 2 2 3 3 4 4 3 3 4 3 3 2 1 0 2 2
2 3 3 4 3 1 5 7 5 3 4 7 8 7 10 13 11 12 12 12 13 12 14 13 11 9 8 7 5 4 4 4 4 3 2 1 3 3 2 2 4 2 2 3 2 2 2 3 3
4 4 5 8 1 2 3 5 6 5 6 8 7 8 9 11 14 13 13 12 13 13 13 15 15 14 10 9 8 8 9 8 7 7 6 7 5 2 1 2 2 2 2 2 2 2 2 2 3
6 5 5 5 1 3 2 7 10 10 3 10 8 8 10 12 12 10 12 12 12 13 14 15 13 15 10 7 8 8 10 9 9 10 10 12 8 6 4 2 1 1 1 1 2 4 1 1 2
3 5 5 4 6 0 6 5 6 11 8 9 9 10 10 10 6 10 11 11 13 15 17 17 17 14 11 6 4 7 7 8 10 9 13 14 13 12 8 4 4 2 2 2 2 1 2 2 1
5 4 6 5 6 5 5 7 5 11 6 6 9 8 8 7 10 10 11 13 14 14 15 16 16 15 12 8 4 4 4 5 5 8 11 14 14 14 11 10 7 6 4 4 2 2 1 2 3
5 6 4 7 3 3 1 5 3 5 8 10 8 8 7 7 8 8 11 10 11 13 12 13 13 15 13 11 6 5 4 4 7 10 9 11 13 13 12 11 9 8 5 4 4 3 3 3 1
4 7 7 4 4 4 1 5 4 5 5 6 5 5 5 6 7 6 7 8 9 8 8 11 12 13 12 11 10 13 9 7 3 3 4 7 11 12 12 11 11 9 6 7 4 3 2 1 4
7 5 5 3 3 1 2 2 3 7 4 4 4 4 5 5 5 6 6 6 5 6 7 6 11 12 10 11 10 8 9 4 3 4 8 9 8 9 11 10 10 10 7 8 8 7 5 2 3
5 5 6 4 3 2 9 8 4 7 8 9 5 6 7 5 5 5 5 5 6 6 7 7 10 10 8 9 10 10 9 7 7 7 7 6 5 6 9 11 10 9 9 9 8 8 7 6 5
3 6 1 3 1 7 4 3 4 6 3 15 16 9 7 6 6 5 6 6 6 8 7 7 8 9 7 8 9 7 7 7 7 6 5 7 6 5 7 7 7 6 6 7 7 8 7 7 5
7 7 7 8 5 4 1 7 3 2 8 14 12 10 8 7 5 6 6 5 5 6 6 7 7 7 7 8 8 6 5 4 3 3 2 2 3 4 5 5 5 6 6 5 5 5 5 5 6
5 5 3 6 3 4 5 1 1 4 7 10 11 9 9 8 7 7 6 5 6 6 5 6 7 6 7 7 6 7 7 8 6 7 5 4 4 6 8 6 6 6 6 6 5 4 7 6 5
5 5 3 2 2 5 5 5 5 9 12 10 10 11 8 7 7 6 6 6 4 4 3 3 3 3 1 2 2 1 3 4 4 4 6 6 6 6 9 12 13 13 12 8 5 6 6 6 6
2 1 1 3 5 6 2 7 2 15 17 18 14 12 10 9 8 7 6 6 6 4 4 4 4 4 4 2 3 4 4 4 5 4 6 6 5 7 7 8 10 10 11 11 10 10 9 8 9
2 7 7 6 6 3 3 9 8 8 16 14 13 10 7 7 8 8 7 7 5 5 4 4 2 3 3 3 3 4 5 5 5 6 6 6 7 7 8 9 11 12 12 12 12 13 12 11 12
Wind_Direction
322 349 76 42 54 63 337 302 293 254 310 224 83 110 196 181 161 209 302 190 135 145 165 173 176 171 173 169 160 156 157 157 156 156 155 150 132 120 113 101 87 80 76 71 65 56 50 40 36
328 48 44 76 80 59 283 272 274 244 304 360 36 76 13 300 230 297 74 206 167 149 159 168 170 172 173 166 162 162 164 167 164 157 159 141 132 130 124 125 106 68 65 60 58 55 47 42 36
22 42 78 87 99 155 205 241 242 303 343 6 10 75 166 299 332 228 231 163 136 147 156 166 168 174 163 161 165 166 171 171 170 164 151 146 133 126 99 69 54 359 54 47 52 54 45 39 40
42 11 36 80 170 245 216 232 226 332 327 24 26 13 310 338 281 289 101 146 140 152 157 167 170 178 167 166 169 172 175 179 180 177 172 161 133 90 79 55 41 318 13 29 40 46 39 36 36
36 55 51 70 289 271 257 245 181 135 54 357 4 313 284 337 312 106 122 148 155 163 161 167 177 181 173 169 175 176 181 190 187 188 175 149 123 112 108 110 360 52 9 13 37 42 30 32 29
42 91 55 326 283 280 304 338 318 62 70 264 353 323 270 301 310 182 141 171 176 166 173 173 180 180 184 174 178 180 183 190 188 189 177 152 133 131 117 102 61 29 317 354 48 42 24 31 26
104 79 176 213 273 323 326 326 28 7 340 271 176 299 284 299 233 202 188 159 187 179 165 175 185 188 187 187 177 181 185 186 183 181 173 162 148 122 95 113 69 274 273 262 136 82 28 34 34
102 90 93 255 249 270 314 336 329 64 292 315 175 255 296 282 145 153 207 175 167 189 186 183 179 183 189 191 182 178 188 188 190 185 181 171 166 122 132 140 249 259 266 259 192 340 338 6 12
111 62 205 241 184 257 324 11 307 289 222 337 299 248 311 39 89 105 23 327 281 238 213 191 186 182 182 185 192 183 191 190 186 190 184 174 180 139 144 164 193 270 277 263 210 241 288 31 3
85 115 222 219 205 244 294 270 334 357 333 274 307 317 48 101 166 211 217 237 244 230 231 206 191 192 178 181 177 190 187 199 191 177 185 175 159 153 139 162 152 230 272 274 212 243 40 38 8
155 196 209 251 224 221 262 254 203 269 292 236 277 282 350 307 284 281 281 256 246 265 245 210 199 191 183 194 194 167 160 200 178 168 168 166 140 138 130 138 148 133 321 334 58 42 62 15 360
242 246 212 264 157 339 244 273 271 200 241 67 302 301 344 14 9 358 341 321 293 251 251 241 219 187 192 169 195 177 165 157 144 163 157 134 134 161 163 171 180 166 172 188 164 123 133 333 327
211 275 284 266 288 250 303 245 250 258 263 2 58 48 41 40 22 7 357 3 356 346 293 239 192 194 179 163 150 156 167 157 168 168 158 152 156 188 185 194 184 202 159 175 194 195 225 295 312
230 272 277 285 265 250 229 266 136 285 76 57 72 56 42 38 19 11 14 5 2 351 345 309 213 180 150 155 156 156 150 158 161 185 177 179 169 168 180 183 207 215 201 176 181 211 238 279 310
303 316 324 262 284 223 161 86 231 255 6 73 79 66 52 37 27 22 4 6 358 356 0 12 29 96 90 68 69 56 64 127 155 165 166 163 186 204 193 184 208 223 188 164 145 184 285 282 295
351 45 340 277 173 244 138 257 270 294 33 98 83 60 56 41 32 16 12 11 8 14 20 27 27 47 78 82 70 62 39 29 19 16 9 233 209 185 172 205 239 206 166 158 176 185 243 251 242
1 238 216 310 233 147 140 253 282 343 49 116 92 59 56 46 32 19 15 17 18 20 26 31 33 34 41 60 68 64 54 47 34 30 20 3 346 325 226 227 260 163 164 190 191 215 205 256 273
212 220 244 238 319 45 309 255 278 320 320 142 99 77 63 54 32 20 20 23 31 31 35 43 42 31 29 47 60 55 55 46 40 36 26 20 15 4 351 1 30 123 137 198 209 225 181 234 264
178 195 221 255 269 352 244 244 340 337 41 96 95 87 77 62 44 38 31 32 40 40 41 37 40 30 37 24 28 45 48 31 36 32 26 26 20 12 14 9 358 344 232 254 189 163 241 276 177
239 242 253 280 264 167 270 282 54 34 38 86 97 81 74 70 51 39 33 35 39 41 39 38 41 40 40 40 32 48 46 45 46 31 31 24 22 22 23 17 11 3 342 333 268 198 250 244 191
207 196 211 220 323 286 282 290 148 56 68 72 64 88 86 79 66 44 41 32 42 45 43 47 43 39 37 40 52 58 64 47 32 25 26 22 24 24 22 20 19 17 17 355 335 311 255 275 280
207 211 219 220 134 228 89 269 168 119 74 76 77 72 85 89 83 72 51 47 43 33 40 60 60 55 45 35 48 58 65 65 20 14 12 22 26 28 23 21 17 13 8 13 348 323 250 252 272
226 150 169 168 149 48 286 94 256 130 158 158 131 112 84 67 81 74 74 77 55 43 43 45 59 55 56 58 57 60 65 59 33 26 32 26 22 25 23 18 15 16 10 1 354 345 325 256 268
140 96 47 56 88 257 224 171 230 192 186 155 160 147 129 124 99 87 73 60 56 43 54 47 58 56 51 56 59 59 53 47 46 33 30 16 9 11 16 9 6 5 4 1 353 342 336 315 280
99 94 317 349 346 229 129 129 268 327 234 161 153 153 153 143 129 112 88 73 63 55 46 62 57 51 45 59 59 59 59 55 49 35 19 11 5 5 358 0 351 349 342 345 347 345 337 332 311
185 165 165 209 200 241 99 233 240 30 105 125 142 151 152 154 149 129 119 113 102 89 76 71 61 55 41 46 47 51 56 64 60 43 12 356 346 336 329 326 320 322 328 330 331 326 322 318 315
192 187 175 102 26 52 224 338 160 119 122 135 150 160 170 170 164 150 146 126 111 93 82 79 70 56 45 42 34 25 24 27 12 4 3 347 338 334 338 319 312 306 302 303 311 303 309 319 305
163 166 89 9 165 238 274 267 207 194 180 172 178 185 187 176 162 161 156 150 140 132 118 100 107 143 200 252 262 317 319 320 307 302 298 315 312 318 320 320 322 322 322 317 296 301 285 279 280
134 201 97 154 152 176 248 257 239 192 181 181 186 192 187 179 179 174 184 182 173 166 172 194 203 211 229 250 261 265 284 291 297 299 294 288 289 292 293 292 293 294 298 304 307 304 296 281 286
234 204 168 189 219 226 158 256 327 181 175 172 189 193 175 178 182 184 191 182 182 200 207 224 254 283 298 293 297 309 313 316 303 290 285 284 281 280 275 284 287 285 286 288 288 292 293 287 287